START_TIME,STEP,MOV.,P11,t_acc.,P23,t_acc.,P27,t_acc.,A4,t_acc.
1979-07-30 18:00:22.120 ,0,1,1.,4.8,0.,4.8,0.,4.8,0.,4.8
1979-07-30 18:00:26.920 ,0,1,4.,4.8,0.,4.8,1.,4.8,0.,4.8
1979-07-30 18:00:31.720 ,0,1,1.,4.8,0.,4.8,0.,4.8,0.,4.8
1979-07-30 18:00:36.520 ,0,1,3.,4.8,0.,4.8,0.,4.8,0.,4.8
1979-07-30 18:00:41.320 ,0,1,3.,4.8,0.,4.8,0.,4.8,0.,4.8
1979-07-30 18:00:46.120 ,4,1,0.,4.8,0.,4.8,0.,4.8,0.,4.8
1979-07-30 18:00:50.920 ,4,1,1.,4.8,0.,4.8,0.,4.8,0.,4.8
1979-07-30 18:00:55.720 ,4,1,0.,4.8,0.,4.8,0.,4.8,0.,4.8
1979-07-30 18:01:00.520 ,4,1,2.,4.8,0.,4.8,1.,4.8,0.,4.8
1979-07-30 18:01:05.320 ,4,1,0.,4.8,0.,4.8,0.,4.8,0.,4.8
1979-07-30 18:01:10.120 ,7,1,1.,4.8,0.,4.8,0.,4.8,0.,4.8
1979-07-30 18:01:14.920 ,7,1,0.,4.8,0.,4.8,0.,4.8,0.,4.8
1979-07-30 18:01:19.720 ,7,1,0.,4.8,0.,4.8,0.,4.8,0.,4.8
1979-07-30 18:01:24.520 ,7,1,0.,4.8,0.,4.8,0.,4.8,0.,4.8
1979-07-30 18:01:29.320 ,7,1,1.,4.8,0.,4.8,0.,4.8,0.,4.8
1979-07-30 18:01:34.120 ,3,1,2.,4.8,0.,4.8,0.,4.8,0.,4.8
1979-07-30 18:01:38.920 ,3,1,3.,4.8,0.,4.8,1.,4.8,0.,4.8
1979-07-30 18:01:43.720 ,3,1,2.,4.8,0.,4.8,0.,4.8,0.,4.8
1979-07-30 18:01:48.520 ,3,1,0.,4.8,0.,4.8,1.,4.8,0.,4.8
1979-07-30 18:01:53.320 ,3,1,0.,4.8,0.,4.8,0.,4.8,0.,4.8
1979-07-30 18:01:58.120 ,0,1,3.,4.8,1.,4.8,0.,4.8,0.,4.8
1979-07-30 18:02:02.920 ,0,1,3.,4.8,1.,4.8,0.,4.8,0.,4.8
1979-07-30 18:02:07.720 ,0,1,0.,4.8,0.,4.8,0.,4.8,0.,4.8
1979-07-30 18:02:12.520 ,0,1,2.,4.8,0.,4.8,0.,4.8,0.,4.8
1979-07-30 18:02:17.320 ,0,1,0.,4.8,0.,4.8,0.,4.8,0.,4.8
1979-07-30 18:02:22.120 ,4,1,2.,4.8,0.,4.8,1.,4.8,0.,4.8
1979-07-30 18:02:26.920 ,4,1,0.,4.8,0.,4.8,0.,4.8,0.,4.8
1979-07-30 18:02:31.720 ,4,1,2.,4.8,0.,4.8,0.,4.8,0.,4.8
1979-07-30 18:02:36.520 ,4,1,1.,4.8,0.,4.8,2.,4.8,0.,4.8
1979-07-30 18:02:41.320 ,4,1,0.,4.8,0.,4.8,0.,4.8,0.,4.8
1979-07-30 18:02:46.120 ,7,1,1.,4.8,0.,4.8,0.,4.8,0.,4.8
1979-07-30 18:02:50.920 ,7,1,1.,4.8,0.,4.8,0.,4.8,0.,4.8
1979-07-30 18:02:55.720 ,7,1,1.,4.8,0.,4.8,0.,4.8,0.,4.8
1979-07-30 18:03:00.520 ,7,1,1.,4.8,0.,4.8,0.,4.8,0.,4.8
1979-07-30 18:03:05.320 ,7,1,2.,4.8,0.,4.8,0.,4.8,0.,4.8
1979-07-30 18:03:10.120 ,3,1,1.,4.8,0.,4.8,0.,4.8,0.,4.8
1979-07-30 18:03:14.920 ,3,1,1.,4.8,0.,4.8,0.,4.8,0.,4.8
1979-07-30 18:03:19.720 ,3,1,,0,,0,,0,,0
1979-07-30 18:03:24.520 ,3,1,0.,4.8,0.,4.8,0.,4.8,0.,4.8
1979-07-30 18:03:29.320 ,3,1,3.,4.8,0.,4.8,0.,4.8,0.,4.8
1979-07-30 18:03:34.120 ,0,1,2.,4.8,0.,4.8,0.,4.8,0.,4.8
1979-07-30 18:03:38.920 ,0,1,3.,4.8,1.,4.8,0.,4.8,0.,4.8
1979-07-30 18:03:43.720 ,0,1,1.,4.8,0.,4.8,0.,4.8,0.,4.8
1979-07-30 18:03:48.520 ,0,1,5.,4.8,1.,4.8,0.,4.8,0.,4.8
1979-07-30 18:03:53.320 ,0,1,1.,4.8,0.,4.8,0.,4.8,0.,4.8
1979-07-30 18:03:58.120 ,4,1,0.,4.8,0.,4.8,0.,4.8,0.,4.8
1979-07-30 18:04:02.920 ,4,1,2.,4.8,0.,4.8,0.,4.8,0.,4.8
1979-07-30 18:04:07.720 ,4,1,0.,4.8,0.,4.8,0.,4.8,0.,4.8
1979-07-30 18:04:12.520 ,4,1,0.,4.8,0.,4.8,0.,4.8,0.,4.8
1979-07-30 18:04:17.320 ,4,1,0.,4.8,0.,4.8,0.,4.8,0.,4.8
1979-07-30 18:04:22.120 ,7,1,2.,4.8,0.,4.8,1.,4.8,0.,4.8
1979-07-30 18:04:26.920 ,7,1,1.,4.8,0.,4.8,0.,4.8,0.,4.8
1979-07-30 18:04:31.720 ,7,1,1.,4.8,0.,4.8,0.,4.8,0.,4.8
1979-07-30 18:04:36.520 ,7,1,1.,4.8,0.,4.8,0.,4.8,0.,4.8
1979-07-30 18:04:41.320 ,7,1,1.,4.8,0.,4.8,0.,4.8,0.,4.8
1979-07-30 18:04:46.120 ,3,1,0.,4.8,0.,4.8,0.,4.8,0.,4.8
1979-07-30 18:04:50.920 ,3,1,0.,4.8,0.,4.8,0.,4.8,0.,4.8
1979-07-30 18:04:55.720 ,3,1,2.,4.8,0.,4.8,0.,4.8,0.,4.8
1979-07-30 18:05:00.520 ,3,1,1.,4.8,0.,4.8,0.,4.8,0.,4.8
1979-07-30 18:05:05.320 ,3,1,1.,4.8,1.,4.8,0.,4.8,0.,4.8
1979-07-30 18:05:10.120 ,0,1,1.,4.8,0.,4.8,0.,4.8,0.,4.8
1979-07-30 18:05:14.920 ,0,1,0.,4.8,0.,4.8,0.,4.8,0.,4.8
1979-07-30 18:05:19.720 ,0,1,1.,4.8,0.,4.8,0.,4.8,0.,4.8
1979-07-30 18:05:24.520 ,0,1,2.,4.8,0.,4.8,0.,4.8,0.,4.8
1979-07-30 18:05:29.320 ,0,1,1.,4.8,0.,4.8,0.,4.8,0.,4.8
1979-07-30 18:05:34.120 ,0,0,1.,4.8,0.,4.8,0.,4.8,0.,4.8
1979-07-30 18:05:38.920 ,0,0,0.,4.8,0.,4.8,1.,4.8,0.,4.8
1979-07-30 18:05:43.720 ,0,0,1.,4.8,0.,4.8,0.,4.8,0.,4.8
1979-07-30 18:05:48.520 ,0,0,2.,4.8,0.,4.8,2.,4.8,0.,4.8
1979-07-30 18:05:53.320 ,0,0,1.,4.8,0.,4.8,0.,4.8,0.,4.8
1979-07-30 18:05:58.120 ,0,0,4.,4.8,0.,4.8,1.,4.8,0.,4.8
1979-07-30 18:06:02.920 ,0,0,1.,4.8,0.,4.8,1.,4.8,0.,4.8
1979-07-30 18:06:07.720 ,0,0,3.,4.8,0.,4.8,0.,4.8,0.,4.8
1979-07-30 18:06:12.520 ,0,0,1.,4.8,0.,4.8,0.,4.8,0.,4.8
1979-07-30 18:06:17.320 ,0,0,0.,4.8,0.,4.8,0.,4.8,0.,4.8
1979-07-30 18:06:22.120 ,5,0,1.,4.8,0.,4.8,0.,4.8,0.,4.8
1979-07-30 18:06:26.920 ,5,0,2.,4.8,0.,4.8,0.,4.8,0.,4.8
1979-07-30 18:06:31.720 ,5,0,1.,4.8,0.,4.8,0.,4.8,0.,4.8
1979-07-30 18:06:36.520 ,5,0,2.,4.8,0.,4.8,1.,4.8,0.,4.8
1979-07-30 18:06:41.320 ,5,0,4.,4.8,0.,4.8,0.,4.8,0.,4.8
1979-07-30 18:06:46.120 ,5,0,0.,4.8,0.,4.8,1.,4.8,0.,4.8
1979-07-30 18:06:50.920 ,5,0,1.,4.8,0.,4.8,0.,4.8,0.,4.8
1979-07-30 18:06:55.720 ,5,0,1.,4.8,0.,4.8,0.,4.8,0.,4.8
1979-07-30 18:07:00.520 ,5,0,2.,4.8,0.,4.8,0.,4.8,0.,4.8
1979-07-30 18:07:05.320 ,5,0,0.,4.8,0.,4.8,0.,4.8,0.,4.8
1979-07-30 18:07:10.120 ,4,0,3.,4.8,0.,4.8,0.,4.8,0.,4.8
1979-07-30 18:07:14.920 ,4,0,0.,4.8,0.,4.8,0.,4.8,0.,4.8
1979-07-30 18:07:19.720 ,4,0,1.,4.8,0.,4.8,0.,4.8,0.,4.8
1979-07-30 18:07:24.520 ,4,0,3.,4.8,0.,4.8,0.,4.8,0.,4.8
1979-07-30 18:07:29.320 ,4,0,0.,4.8,0.,4.8,1.,4.8,0.,4.8
1979-07-30 18:07:34.120 ,4,0,2.,4.8,0.,4.8,0.,4.8,0.,4.8
1979-07-30 18:07:38.920 ,4,0,1.,4.8,0.,4.8,0.,4.8,0.,4.8
1979-07-30 18:07:43.720 ,4,0,0.,4.8,0.,4.8,0.,4.8,0.,4.8
1979-07-30 18:07:48.520 ,4,0,1.,4.8,1.,4.8,0.,4.8,0.,4.8
1979-07-30 18:07:53.320 ,4,0,0.,4.8,0.,4.8,0.,4.8,0.,4.8
1979-07-30 18:07:58.120 ,3,0,1.,4.8,0.,4.8,0.,4.8,0.,4.8
1979-07-30 18:08:02.920 ,3,0,2.,4.8,1.,4.8,0.,4.8,0.,4.8
1979-07-30 18:08:07.720 ,3,0,3.,4.8,0.,4.8,0.,4.8,0.,4.8
1979-07-30 18:08:12.520 ,3,0,0.,4.8,0.,4.8,1.,4.8,0.,4.8
1979-07-30 18:08:17.320 ,3,0,3.,4.8,0.,4.8,0.,4.8,0.,4.8
1979-07-30 18:08:22.120 ,3,0,0.,4.8,0.,4.8,0.,4.8,0.,4.8
1979-07-30 18:08:26.920 ,3,0,1.,4.8,0.,4.8,0.,4.8,0.,4.8
1979-07-30 18:08:31.720 ,3,0,0.,4.8,0.,4.8,0.,4.8,0.,4.8
1979-07-30 18:08:36.520 ,3,0,0.,4.8,0.,4.8,0.,4.8,0.,4.8
1979-07-30 18:08:41.320 ,3,0,1.,4.8,0.,4.8,1.,4.8,0.,4.8
1979-07-30 18:08:46.120 ,2,0,2.,4.8,0.,4.8,1.,4.8,0.,4.8
1979-07-30 18:08:50.920 ,2,0,4.,4.8,0.,4.8,0.,4.8,0.,4.8
1979-07-30 18:08:55.720 ,2,0,0.,4.8,0.,4.8,0.,4.8,0.,4.8
1979-07-30 18:09:00.520 ,2,0,2.,4.8,1.,4.8,0.,4.8,0.,4.8
1979-07-30 18:09:05.320 ,2,0,0.,4.8,0.,4.8,2.,4.8,0.,4.8
1979-07-30 18:09:10.120 ,2,0,0.,4.8,0.,4.8,0.,4.8,0.,4.8
1979-07-30 18:09:14.920 ,2,0,1.,4.8,0.,4.8,0.,4.8,0.,4.8
1979-07-30 18:09:19.720 ,2,0,2.,4.8,0.,4.8,0.,4.8,0.,4.8
1979-07-30 18:09:24.520 ,2,0,0.,4.8,1.,4.8,0.,4.8,0.,4.8
1979-07-30 18:09:29.320 ,2,0,0.,4.8,0.,4.8,0.,4.8,0.,4.8
1979-07-30 18:09:34.120 ,1,0,0.,4.8,0.,4.8,0.,4.8,0.,4.8
1979-07-30 18:09:38.920 ,1,0,0.,4.8,0.,4.8,0.,4.8,0.,4.8
1979-07-30 18:09:43.720 ,1,0,0.,4.8,0.,4.8,0.,4.8,0.,4.8
1979-07-30 18:09:48.520 ,1,0,1.,4.8,0.,4.8,0.,4.8,0.,4.8
1979-07-30 18:09:53.320 ,1,0,1.,4.8,1.,4.8,0.,4.8,0.,4.8
1979-07-30 18:09:58.120 ,1,0,2.,4.8,0.,4.8,0.,4.8,0.,4.8
1979-07-30 18:10:02.920 ,1,0,1.,4.8,0.,4.8,0.,4.8,0.,4.8
1979-07-30 18:10:07.720 ,1,0,1.,4.8,0.,4.8,0.,4.8,0.,4.8
1979-07-30 18:10:12.520 ,1,0,1.,4.8,0.,4.8,0.,4.8,0.,4.8
1979-07-30 18:10:17.320 ,1,0,1.,4.8,0.,4.8,0.,4.8,0.,4.8
1979-07-30 18:10:22.120 ,0,0,1.,4.8,0.,4.8,0.,4.8,0.,4.8
1979-07-30 18:10:26.920 ,0,0,0.,4.8,0.,4.8,0.,4.8,0.,4.8
1979-07-30 18:10:31.720 ,0,0,3.,4.8,0.,4.8,0.,4.8,0.,4.8
1979-07-30 18:10:36.520 ,0,0,0.,4.8,1.,4.8,0.,4.8,0.,4.8
1979-07-30 18:10:41.320 ,0,0,2.,4.8,0.,4.8,0.,4.8,0.,4.8
1979-07-30 18:10:46.120 ,0,0,2.,4.8,0.,4.8,0.,4.8,0.,4.8
1979-07-30 18:10:50.920 ,0,0,3.,4.8,0.,4.8,0.,4.8,0.,4.8
1979-07-30 18:10:55.720 ,0,0,1.,4.8,0.,4.8,0.,4.8,0.,4.8
1979-07-30 18:11:00.520 ,0,0,1.,4.8,1.,4.8,0.,4.8,0.,4.8
1979-07-30 18:11:05.320 ,0,0,2.,4.8,0.,4.8,0.,4.8,0.,4.8
1979-07-30 18:11:10.120 ,0,0,0.,4.8,0.,4.8,0.,4.8,0.,4.8
1979-07-30 18:11:14.920 ,0,0,0.,4.8,0.,4.8,0.,4.8,0.,4.8
1979-07-30 18:11:19.720 ,0,0,1.,4.8,0.,4.8,0.,4.8,0.,4.8
1979-07-30 18:11:24.520 ,0,0,2.,4.8,0.,4.8,0.,4.8,0.,4.8
1979-07-30 18:11:29.320 ,0,0,1.,4.8,1.,4.8,0.,4.8,0.,4.8
1979-07-30 18:11:34.120 ,0,0,1.,4.8,0.,4.8,0.,4.8,0.,4.8
1979-07-30 18:11:38.920 ,0,0,0.,4.8,0.,4.8,1.,4.8,0.,4.8
1979-07-30 18:11:43.720 ,0,0,2.,4.8,0.,4.8,0.,4.8,0.,4.8
1979-07-30 18:11:48.520 ,0,0,3.,4.8,0.,4.8,0.,4.8,0.,4.8
1979-07-30 18:11:53.320 ,0,0,0.,4.8,0.,4.8,0.,4.8,0.,4.8
1979-07-30 18:11:58.120 ,1,0,0.,4.8,0.,4.8,0.,4.8,0.,4.8
1979-07-30 18:12:02.920 ,1,0,1.,4.8,0.,4.8,1.,4.8,0.,4.8
1979-07-30 18:12:07.720 ,1,0,0.,4.8,0.,4.8,0.,4.8,0.,4.8
1979-07-30 18:12:12.520 ,1,0,0.,4.8,0.,4.8,0.,4.8,0.,4.8
1979-07-30 18:12:17.320 ,1,0,0.,4.8,0.,4.8,0.,4.8,0.,4.8
1979-07-30 18:12:22.120 ,1,0,0.,4.8,0.,4.8,0.,4.8,0.,4.8
1979-07-30 18:12:26.920 ,1,0,0.,4.8,0.,4.8,0.,4.8,0.,4.8
1979-07-30 18:12:31.720 ,1,0,2.,4.8,0.,4.8,0.,4.8,0.,4.8
1979-07-30 18:12:36.520 ,1,0,1.,4.8,0.,4.8,0.,4.8,0.,4.8
1979-07-30 18:12:41.320 ,1,0,0.,4.8,0.,4.8,0.,4.8,0.,4.8
1979-07-30 18:12:46.120 ,2,0,0.,4.8,0.,4.8,0.,4.8,0.,4.8
1979-07-30 18:12:50.920 ,2,0,1.,4.8,0.,4.8,0.,4.8,0.,4.8
1979-07-30 18:12:55.720 ,2,0,1.,4.8,0.,4.8,0.,4.8,0.,4.8
1979-07-30 18:13:00.520 ,2,0,3.,4.8,0.,4.8,0.,4.8,0.,4.8
1979-07-30 18:13:05.320 ,2,0,0.,4.8,1.,4.8,0.,4.8,1.,4.8
1979-07-30 18:13:10.120 ,2,0,1.,4.8,0.,4.8,0.,4.8,1.,4.8
1979-07-30 18:13:14.920 ,2,0,1.,4.8,0.,4.8,0.,4.8,0.,4.8
1979-07-30 18:13:19.720 ,2,0,0.,4.8,0.,4.8,0.,4.8,0.,4.8
1979-07-30 18:13:24.520 ,2,0,0.,4.8,0.,4.8,0.,4.8,0.,4.8
1979-07-30 18:13:29.320 ,2,0,1.,4.8,0.,4.8,1.,4.8,0.,4.8
1979-07-30 18:13:34.120 ,3,0,0.,4.8,0.,4.8,0.,4.8,0.,4.8
1979-07-30 18:13:38.920 ,3,0,2.,4.8,0.,4.8,0.,4.8,0.,4.8
1979-07-30 18:13:43.720 ,3,0,0.,4.8,0.,4.8,0.,4.8,0.,4.8
1979-07-30 18:13:48.520 ,3,0,0.,4.8,0.,4.8,0.,4.8,0.,4.8
1979-07-30 18:13:53.320 ,3,0,0.,4.8,0.,4.8,0.,4.8,0.,4.8
1979-07-30 18:13:58.120 ,3,0,1.,4.8,0.,4.8,0.,4.8,0.,4.8
1979-07-30 18:14:02.920 ,3,0,0.,4.8,0.,4.8,0.,4.8,0.,4.8
1979-07-30 18:14:07.720 ,3,0,2.,4.8,0.,4.8,0.,4.8,0.,4.8
1979-07-30 18:14:12.520 ,3,0,1.,4.8,0.,4.8,0.,4.8,0.,4.8
1979-07-30 18:14:17.320 ,3,0,0.,4.8,0.,4.8,0.,4.8,0.,4.8
1979-07-30 18:14:22.120 ,4,0,1.,4.8,0.,4.8,0.,4.8,0.,4.8
1979-07-30 18:14:26.920 ,4,0,0.,4.8,0.,4.8,0.,4.8,0.,4.8
1979-07-30 18:14:31.720 ,4,0,2.,4.8,0.,4.8,0.,4.8,0.,4.8
1979-07-30 18:14:36.520 ,4,0,1.,4.8,0.,4.8,0.,4.8,0.,4.8
1979-07-30 18:14:41.320 ,4,0,0.,4.8,0.,4.8,1.,4.8,0.,4.8
1979-07-30 18:14:46.120 ,4,0,2.,4.8,0.,4.8,0.,4.8,0.,4.8
1979-07-30 18:14:50.920 ,4,0,0.,4.8,0.,4.8,0.,4.8,0.,4.8
1979-07-30 18:14:55.720 ,4,0,2.,4.8,0.,4.8,0.,4.8,0.,4.8
1979-07-30 18:15:00.520 ,4,0,1.,4.8,0.,4.8,1.,4.8,0.,4.8
1979-07-30 18:15:05.320 ,4,0,0.,4.8,1.,4.8,0.,4.8,0.,4.8
1979-07-30 18:15:10.120 ,5,0,0.,4.8,1.,4.8,0.,4.8,0.,4.8
1979-07-30 18:15:14.920 ,5,0,0.,4.8,0.,4.8,0.,4.8,0.,4.8
1979-07-30 18:15:19.720 ,5,0,1.,4.8,0.,4.8,1.,4.8,0.,4.8
1979-07-30 18:15:24.520 ,5,0,1.,4.8,0.,4.8,0.,4.8,0.,4.8
1979-07-30 18:15:29.320 ,5,0,1.,4.8,0.,4.8,0.,4.8,0.,4.8
1979-07-30 18:15:34.120 ,5,0,1.,4.8,0.,4.8,0.,4.8,0.,4.8
1979-07-30 18:15:38.920 ,5,0,0.,4.8,0.,4.8,1.,4.8,0.,4.8
1979-07-30 18:15:43.720 ,5,0,0.,4.8,0.,4.8,0.,4.8,0.,4.8
1979-07-30 18:15:48.520 ,5,0,3.,4.8,0.,4.8,0.,4.8,0.,4.8
1979-07-30 18:15:53.320 ,5,0,0.,4.8,0.,4.8,0.,4.8,0.,4.8
1979-07-30 18:15:58.120 ,6,0,0.,4.8,0.,4.8,0.,4.8,0.,4.8
1979-07-30 18:16:02.920 ,6,0,2.,4.8,0.,4.8,0.,4.8,0.,4.8
1979-07-30 18:16:07.720 ,6,0,1.,4.8,0.,4.8,0.,4.8,0.,4.8
1979-07-30 18:16:12.520 ,6,0,2.,4.8,0.,4.8,0.,4.8,0.,4.8
1979-07-30 18:16:17.320 ,6,0,1.,4.8,0.,4.8,0.,4.8,0.,4.8
1979-07-30 18:16:22.120 ,6,0,3.,4.8,0.,4.8,0.,4.8,0.,4.8
1979-07-30 18:16:26.920 ,6,0,2.,4.8,0.,4.8,0.,4.8,0.,4.8
1979-07-30 18:16:31.720 ,6,0,1.,4.8,0.,4.8,0.,4.8,0.,4.8
1979-07-30 18:16:36.520 ,6,0,1.,4.8,0.,4.8,0.,4.8,0.,4.8
1979-07-30 18:16:41.320 ,6,0,3.,4.8,0.,4.8,0.,4.8,0.,4.8
1979-07-30 18:16:46.120 ,7,0,0.,4.8,0.,4.8,0.,4.8,0.,4.8
1979-07-30 18:16:50.920 ,7,0,2.,4.8,0.,4.8,0.,4.8,0.,4.8
1979-07-30 18:16:55.720 ,7,0,0.,4.8,0.,4.8,0.,4.8,0.,4.8
1979-07-30 18:17:00.520 ,7,0,1.,4.8,0.,4.8,0.,4.8,0.,4.8
1979-07-30 18:17:05.320 ,7,0,1.,4.8,0.,4.8,0.,4.8,0.,4.8
1979-07-30 18:17:10.120 ,7,0,2.,4.8,0.,4.8,0.,4.8,0.,4.8
1979-07-30 18:17:14.920 ,7,0,0.,4.8,0.,4.8,0.,4.8,0.,4.8
1979-07-30 18:17:19.720 ,7,0,1.,4.8,0.,4.8,0.,4.8,0.,4.8
1979-07-30 18:17:24.520 ,7,0,3.,4.8,0.,4.8,0.,4.8,0.,4.8
1979-07-30 18:17:29.320 ,7,0,0.,4.8,0.,4.8,0.,4.8,0.,4.8
1979-07-30 18:17:34.120 ,7,0,0.,4.8,0.,4.8,0.,4.8,0.,4.8
1979-07-30 18:17:38.920 ,7,0,0.,4.8,0.,4.8,0.,4.8,0.,4.8
1979-07-30 18:17:43.720 ,7,0,1.,4.8,0.,4.8,0.,4.8,0.,4.8
1979-07-30 18:17:48.520 ,7,0,2.,4.8,0.,4.8,0.,4.8,0.,4.8
1979-07-30 18:17:53.320 ,7,0,2.,4.8,1.,4.8,0.,4.8,0.,4.8
1979-07-30 18:17:58.120 ,7,0,0.,4.8,0.,4.8,0.,4.8,0.,4.8
1979-07-30 18:18:02.920 ,7,0,0.,4.8,0.,4.8,0.,4.8,0.,4.8
1979-07-30 18:18:07.720 ,7,0,1.,4.8,0.,4.8,0.,4.8,0.,4.8
1979-07-30 18:18:12.520 ,7,0,1.,4.8,0.,4.8,0.,4.8,0.,4.8
1979-07-30 18:18:17.320 ,7,0,0.,4.8,0.,4.8,0.,4.8,0.,4.8
1979-07-30 18:18:22.120 ,6,0,0.,4.8,0.,4.8,0.,4.8,0.,4.8
1979-07-30 18:18:26.920 ,6,0,1.,4.8,0.,4.8,0.,4.8,0.,4.8
1979-07-30 18:18:31.720 ,6,0,0.,4.8,0.,4.8,0.,4.8,0.,4.8
1979-07-30 18:18:36.520 ,6,0,3.,4.8,0.,4.8,0.,4.8,0.,4.8
1979-07-30 18:18:41.320 ,6,0,2.,4.8,0.,4.8,0.,4.8,0.,4.8
1979-07-30 18:18:46.120 ,6,0,0.,4.8,0.,4.8,0.,4.8,0.,4.8
1979-07-30 18:18:50.920 ,6,0,1.,4.8,0.,4.8,0.,4.8,0.,4.8
1979-07-30 18:18:55.720 ,6,0,1.,4.8,0.,4.8,0.,4.8,0.,4.8
1979-07-30 18:19:00.520 ,6,0,0.,4.8,0.,4.8,0.,4.8,0.,4.8
1979-07-30 18:19:05.320 ,6,0,1.,4.8,0.,4.8,0.,4.8,0.,4.8
1979-07-30 18:19:10.120 ,5,0,0.,4.8,0.,4.8,0.,4.8,0.,4.8
1979-07-30 18:19:14.920 ,5,0,0.,4.8,0.,4.8,0.,4.8,0.,4.8
1979-07-30 18:19:19.720 ,5,0,1.,4.8,0.,4.8,0.,4.8,0.,4.8
1979-07-30 18:19:24.520 ,5,0,0.,4.8,0.,4.8,0.,4.8,0.,4.8
1979-07-30 18:19:29.320 ,5,0,1.,4.8,0.,4.8,0.,4.8,0.,4.8
1979-07-30 18:19:34.120 ,5,0,1.,4.8,0.,4.8,0.,4.8,0.,4.8
1979-07-30 18:19:38.920 ,5,0,3.,4.8,0.,4.8,0.,4.8,0.,4.8
1979-07-30 18:19:43.720 ,5,0,1.,4.8,0.,4.8,0.,4.8,0.,4.8
1979-07-30 18:19:48.520 ,5,0,0.,4.8,0.,4.8,0.,4.8,0.,4.8
1979-07-30 18:19:53.320 ,5,0,0.,4.8,0.,4.8,1.,4.8,0.,4.8
1979-07-30 18:19:58.120 ,4,0,1.,4.8,0.,4.8,0.,4.8,0.,4.8
1979-07-30 18:20:02.920 ,4,0,2.,4.8,0.,4.8,0.,4.8,0.,4.8
1979-07-30 18:20:07.720 ,4,0,6.,4.8,0.,4.8,0.,4.8,0.,4.8
1979-07-30 18:20:12.520 ,4,0,2.,4.8,0.,4.8,0.,4.8,0.,4.8
1979-07-30 18:20:17.320 ,4,0,2.,4.8,0.,4.8,0.,4.8,0.,4.8
1979-07-30 18:20:22.120 ,4,0,0.,4.8,0.,4.8,0.,4.8,0.,4.8
1979-07-30 18:20:26.920 ,4,0,2.,4.8,0.,4.8,0.,4.8,0.,4.8
1979-07-30 18:20:31.720 ,4,0,1.,4.8,0.,4.8,0.,4.8,0.,4.8
1979-07-30 18:20:36.520 ,4,0,2.,4.8,0.,4.8,0.,4.8,0.,4.8
1979-07-30 18:20:41.320 ,4,0,0.,4.8,0.,4.8,0.,4.8,0.,4.8
1979-07-30 18:20:46.120 ,3,0,2.,4.8,0.,4.8,0.,4.8,0.,4.8
1979-07-30 18:20:50.920 ,3,0,0.,4.8,0.,4.8,0.,4.8,0.,4.8
1979-07-30 18:20:55.720 ,3,0,1.,4.8,0.,4.8,0.,4.8,0.,4.8
1979-07-30 18:21:00.520 ,3,0,0.,4.8,0.,4.8,0.,4.8,0.,4.8
1979-07-30 18:21:05.320 ,3,0,0.,4.8,0.,4.8,0.,4.8,0.,4.8
1979-07-30 18:21:10.120 ,3,0,0.,4.8,0.,4.8,0.,4.8,0.,4.8
1979-07-30 18:21:14.920 ,3,0,1.,4.8,0.,4.8,0.,4.8,0.,4.8
1979-07-30 18:21:19.720 ,3,0,1.,4.8,0.,4.8,0.,4.8,0.,4.8
1979-07-30 18:21:24.520 ,3,0,0.,4.8,0.,4.8,0.,4.8,0.,4.8
1979-07-30 18:21:29.320 ,3,0,0.,4.8,0.,4.8,0.,4.8,0.,4.8
1979-07-30 18:21:34.120 ,2,0,0.,4.8,0.,4.8,0.,4.8,0.,4.8
1979-07-30 18:21:38.920 ,2,0,0.,4.8,0.,4.8,0.,4.8,0.,4.8
1979-07-30 18:21:43.720 ,2,0,1.,4.8,0.,4.8,0.,4.8,0.,4.8
1979-07-30 18:21:48.520 ,2,0,1.,4.8,0.,4.8,0.,4.8,0.,4.8
1979-07-30 18:21:53.320 ,2,0,1.,4.8,0.,4.8,0.,4.8,0.,4.8
1979-07-30 18:21:58.120 ,2,0,1.,4.8,0.,4.8,0.,4.8,0.,4.8
1979-07-30 18:22:02.920 ,2,0,0.,4.8,0.,4.8,0.,4.8,0.,4.8
1979-07-30 18:22:07.720 ,2,0,2.,4.8,0.,4.8,0.,4.8,0.,4.8
1979-07-30 18:22:12.520 ,2,0,2.,4.8,0.,4.8,0.,4.8,0.,4.8
1979-07-30 18:22:17.320 ,2,0,0.,4.8,0.,4.8,0.,4.8,0.,4.8
1979-07-30 18:22:22.120 ,1,0,0.,4.8,0.,4.8,0.,4.8,0.,4.8
1979-07-30 18:22:26.920 ,1,0,3.,4.8,0.,4.8,0.,4.8,0.,4.8
1979-07-30 18:22:31.720 ,1,0,1.,4.8,0.,4.8,0.,4.8,0.,4.8
1979-07-30 18:22:36.520 ,1,0,3.,4.8,0.,4.8,0.,4.8,0.,4.8
1979-07-30 18:22:41.320 ,1,0,1.,4.8,0.,4.8,0.,4.8,0.,4.8
1979-07-30 18:22:46.120 ,1,0,0.,4.8,0.,4.8,0.,4.8,0.,4.8
1979-07-30 18:22:50.920 ,1,0,1.,4.8,0.,4.8,0.,4.8,0.,4.8
1979-07-30 18:22:55.720 ,1,0,0.,4.8,0.,4.8,0.,4.8,0.,4.8
1979-07-30 18:23:00.520 ,1,0,2.,4.8,0.,4.8,0.,4.8,0.,4.8
1979-07-30 18:23:05.320 ,1,0,0.,4.8,0.,4.8,0.,4.8,0.,4.8
1979-07-30 18:23:10.120 ,0,0,1.,4.8,0.,4.8,0.,4.8,0.,4.8
1979-07-30 18:23:14.920 ,0,0,0.,4.8,0.,4.8,0.,4.8,0.,4.8
1979-07-30 18:23:19.720 ,0,0,3.,4.8,0.,4.8,0.,4.8,0.,4.8
1979-07-30 18:23:24.520 ,0,0,3.,4.8,0.,4.8,0.,4.8,0.,4.8
1979-07-30 18:23:29.320 ,0,0,1.,4.8,0.,4.8,0.,4.8,0.,4.8
1979-07-30 18:23:34.120 ,0,0,1.,4.8,1.,4.8,0.,4.8,0.,4.8
1979-07-30 18:23:38.920 ,0,0,1.,4.8,0.,4.8,2.,4.8,0.,4.8
1979-07-30 18:23:43.720 ,0,0,2.,4.8,0.,4.8,1.,4.8,0.,4.8
1979-07-30 18:23:48.520 ,0,0,1.,4.8,0.,4.8,0.,4.8,0.,4.8
1979-07-30 18:23:53.320 ,0,0,2.,4.8,0.,4.8,0.,4.8,0.,4.8
1979-07-30 18:23:58.120 ,0,0,3.,4.8,0.,4.8,1.,4.8,0.,4.8
1979-07-30 18:24:02.920 ,0,0,0.,4.8,0.,4.8,0.,4.8,0.,4.8
1979-07-30 18:24:07.720 ,0,0,1.,4.8,0.,4.8,0.,4.8,0.,4.8
1979-07-30 18:24:12.520 ,0,0,1.,4.8,0.,4.8,0.,4.8,0.,4.8
1979-07-30 18:24:17.320 ,0,0,1.,4.8,0.,4.8,1.,4.8,0.,4.8
1979-07-30 18:24:22.120 ,0,0,1.,4.8,0.,4.8,0.,4.8,0.,4.8
1979-07-30 18:24:26.920 ,0,0,1.,4.8,0.,4.8,0.,4.8,0.,4.8
1979-07-30 18:24:31.720 ,0,0,1.,4.8,0.,4.8,3.,4.8,0.,4.8
1979-07-30 18:24:36.520 ,0,0,0.,4.8,0.,4.8,0.,4.8,0.,4.8
1979-07-30 18:24:41.320 ,0,0,1.,4.8,0.,4.8,0.,4.8,0.,4.8
1979-07-30 18:24:46.120 ,1,0,1.,4.8,0.,4.8,2.,4.8,0.,4.8
1979-07-30 18:24:50.920 ,1,0,2.,4.8,0.,4.8,0.,4.8,0.,4.8
1979-07-30 18:24:55.720 ,1,0,3.,4.8,0.,4.8,0.,4.8,0.,4.8
1979-07-30 18:25:00.520 ,1,0,2.,4.8,0.,4.8,1.,4.8,0.,4.8
1979-07-30 18:25:05.320 ,1,0,2.,4.8,0.,4.8,0.,4.8,0.,4.8
1979-07-30 18:25:10.120 ,1,0,0.,4.8,0.,4.8,0.,4.8,0.,4.8
1979-07-30 18:25:14.920 ,1,0,3.,4.8,0.,4.8,0.,4.8,0.,4.8
1979-07-30 18:25:19.720 ,1,0,2.,4.8,0.,4.8,0.,4.8,0.,4.8
1979-07-30 18:25:24.520 ,1,0,2.,4.8,0.,4.8,0.,4.8,0.,4.8
1979-07-30 18:25:29.320 ,1,0,2.,4.8,0.,4.8,0.,4.8,0.,4.8
1979-07-30 18:25:34.120 ,2,0,1.,4.8,0.,4.8,0.,4.8,0.,4.8
1979-07-30 18:25:38.920 ,2,0,1.,4.8,0.,4.8,0.,4.8,0.,4.8
1979-07-30 18:25:43.720 ,2,0,1.,4.8,0.,4.8,0.,4.8,0.,4.8
1979-07-30 18:25:48.520 ,2,0,2.,4.8,0.,4.8,0.,4.8,0.,4.8
1979-07-30 18:25:53.320 ,2,0,2.,4.8,0.,4.8,0.,4.8,0.,4.8
1979-07-30 18:25:58.120 ,2,0,2.,4.8,0.,4.8,0.,4.8,0.,4.8
1979-07-30 18:26:02.920 ,2,0,3.,4.8,0.,4.8,0.,4.8,0.,4.8
1979-07-30 18:26:07.720 ,2,0,2.,4.8,0.,4.8,0.,4.8,0.,4.8
1979-07-30 18:26:12.520 ,2,0,0.,4.8,0.,4.8,0.,4.8,0.,4.8
1979-07-30 18:26:17.320 ,2,0,1.,4.8,0.,4.8,0.,4.8,0.,4.8
1979-07-30 18:26:22.120 ,3,0,0.,4.8,0.,4.8,0.,4.8,0.,4.8
1979-07-30 18:26:26.920 ,3,0,0.,4.8,0.,4.8,0.,4.8,0.,4.8
1979-07-30 18:26:31.720 ,3,0,2.,4.8,0.,4.8,0.,4.8,0.,4.8
1979-07-30 18:26:36.520 ,3,0,3.,4.8,0.,4.8,0.,4.8,0.,4.8
1979-07-30 18:26:41.320 ,3,0,1.,4.8,0.,4.8,0.,4.8,0.,4.8
1979-07-30 18:26:46.120 ,3,0,0.,4.8,0.,4.8,0.,4.8,0.,4.8
1979-07-30 18:26:50.920 ,3,0,2.,4.8,0.,4.8,0.,4.8,0.,4.8
1979-07-30 18:26:55.720 ,3,0,3.,4.8,0.,4.8,0.,4.8,0.,4.8
1979-07-30 18:27:00.520 ,3,0,1.,4.8,0.,4.8,0.,4.8,0.,4.8
1979-07-30 18:27:05.320 ,3,0,1.,4.8,0.,4.8,0.,4.8,0.,4.8
1979-07-30 18:27:10.120 ,4,0,2.,4.8,0.,4.8,0.,4.8,0.,4.8
1979-07-30 18:27:14.920 ,4,0,1.,4.8,0.,4.8,0.,4.8,0.,4.8
1979-07-30 18:27:19.720 ,4,0,2.,4.8,0.,4.8,0.,4.8,0.,4.8
1979-07-30 18:27:24.520 ,4,0,3.,4.8,0.,4.8,0.,4.8,0.,4.8
1979-07-30 18:27:29.320 ,4,0,3.,4.8,0.,4.8,0.,4.8,0.,4.8
1979-07-30 18:27:34.120 ,4,0,2.,4.8,0.,4.8,0.,4.8,0.,4.8
1979-07-30 18:27:38.920 ,4,0,3.,4.8,0.,4.8,0.,4.8,0.,4.8
1979-07-30 18:27:43.720 ,4,0,2.,4.8,0.,4.8,0.,4.8,0.,4.8
1979-07-30 18:27:48.520 ,4,0,2.,4.8,0.,4.8,0.,4.8,0.,4.8
1979-07-30 18:27:53.320 ,4,0,1.,4.8,0.,4.8,1.,4.8,0.,4.8
1979-07-30 18:27:58.120 ,5,0,4.,4.8,0.,4.8,0.,4.8,0.,4.8
1979-07-30 18:28:02.920 ,5,0,3.,4.8,0.,4.8,0.,4.8,0.,4.8
1979-07-30 18:28:07.720 ,5,0,2.,4.8,0.,4.8,0.,4.8,0.,4.8
1979-07-30 18:28:12.520 ,5,0,0.,4.8,0.,4.8,0.,4.8,0.,4.8
1979-07-30 18:28:17.320 ,5,0,3.,4.8,0.,4.8,0.,4.8,0.,4.8
1979-07-30 18:28:22.120 ,5,0,1.,4.8,0.,4.8,0.,4.8,0.,4.8
1979-07-30 18:28:26.920 ,5,0,1.,4.8,0.,4.8,0.,4.8,0.,4.8
1979-07-30 18:28:31.720 ,5,0,3.,4.8,0.,4.8,0.,4.8,0.,4.8
1979-07-30 18:28:36.520 ,5,0,0.,4.8,0.,4.8,0.,4.8,0.,4.8
1979-07-30 18:28:41.320 ,5,0,1.,4.8,0.,4.8,1.,4.8,0.,4.8
1979-07-30 18:28:46.120 ,6,0,5.,4.8,0.,4.8,0.,4.8,0.,4.8
1979-07-30 18:28:50.920 ,6,0,3.,4.8,0.,4.8,0.,4.8,0.,4.8
1979-07-30 18:28:55.720 ,6,0,0.,4.8,0.,4.8,0.,4.8,0.,4.8
1979-07-30 18:29:00.520 ,6,0,3.,4.8,0.,4.8,0.,4.8,0.,4.8
1979-07-30 18:29:05.320 ,6,0,0.,4.8,0.,4.8,0.,4.8,0.,4.8
1979-07-30 18:29:10.120 ,6,0,1.,4.8,0.,4.8,0.,4.8,0.,4.8
1979-07-30 18:29:14.920 ,6,0,3.,4.8,0.,4.8,0.,4.8,0.,4.8
1979-07-30 18:29:19.720 ,6,0,2.,4.8,0.,4.8,0.,4.8,0.,4.8
1979-07-30 18:29:24.520 ,6,0,4.,4.8,0.,4.8,0.,4.8,0.,4.8
1979-07-30 18:29:29.320 ,6,0,1.,4.8,0.,4.8,0.,4.8,0.,4.8
1979-07-30 18:29:34.120 ,7,0,4.,4.8,0.,4.8,0.,4.8,0.,4.8
1979-07-30 18:29:38.920 ,7,0,1.,4.8,0.,4.8,0.,4.8,0.,4.8
1979-07-30 18:29:43.720 ,7,0,0.,4.8,0.,4.8,0.,4.8,0.,4.8
1979-07-30 18:29:48.520 ,7,0,1.,4.8,0.,4.8,0.,4.8,0.,4.8
1979-07-30 18:29:53.320 ,7,0,1.,4.8,0.,4.8,0.,4.8,0.,4.8
1979-07-30 18:29:58.120 ,7,0,0.,4.8,0.,4.8,0.,4.8,0.,4.8
1979-07-30 18:30:02.920 ,7,0,3.,4.8,0.,4.8,0.,4.8,0.,4.8
1979-07-30 18:30:07.720 ,7,0,1.,4.8,0.,4.8,1.,4.8,0.,4.8
1979-07-30 18:30:12.520 ,7,0,0.,4.8,0.,4.8,0.,4.8,0.,4.8
1979-07-30 18:30:17.320 ,7,0,0.,4.8,0.,4.8,0.,4.8,0.,4.8
1979-07-30 18:30:22.120 ,7,0,2.,4.8,0.,4.8,0.,4.8,0.,4.8
1979-07-30 18:30:26.920 ,7,0,0.,4.8,0.,4.8,0.,4.8,0.,4.8
1979-07-30 18:30:31.720 ,7,0,1.,4.8,0.,4.8,0.,4.8,0.,4.8
1979-07-30 18:30:36.520 ,7,0,1.,4.8,0.,4.8,1.,4.8,0.,4.8
1979-07-30 18:30:41.320 ,7,0,0.,4.8,0.,4.8,0.,4.8,0.,4.8
1979-07-30 18:30:46.120 ,7,0,2.,4.8,0.,4.8,0.,4.8,0.,4.8
1979-07-30 18:30:50.920 ,7,0,0.,4.8,0.,4.8,0.,4.8,0.,4.8
1979-07-30 18:30:55.720 ,7,0,3.,4.8,0.,4.8,0.,4.8,0.,4.8
1979-07-30 18:31:00.520 ,7,0,1.,4.8,0.,4.8,0.,4.8,0.,4.8
1979-07-30 18:31:05.320 ,7,0,1.,4.8,0.,4.8,0.,4.8,0.,4.8
1979-07-30 18:31:10.120 ,6,0,2.,4.8,0.,4.8,0.,4.8,0.,4.8
1979-07-30 18:31:14.920 ,6,0,4.,4.8,0.,4.8,1.,4.8,0.,4.8
1979-07-30 18:31:19.720 ,6,0,0.,4.8,0.,4.8,0.,4.8,0.,4.8
1979-07-30 18:31:24.520 ,6,0,2.,4.8,0.,4.8,0.,4.8,0.,4.8
1979-07-30 18:31:29.320 ,6,0,1.,4.8,0.,4.8,0.,4.8,0.,4.8
1979-07-30 18:31:34.120 ,6,0,2.,4.8,0.,4.8,0.,4.8,0.,4.8
1979-07-30 18:31:38.920 ,6,0,1.,4.8,0.,4.8,0.,4.8,0.,4.8
1979-07-30 18:31:43.720 ,6,0,1.,4.8,0.,4.8,0.,4.8,0.,4.8
1979-07-30 18:31:48.520 ,6,0,1.,4.8,0.,4.8,1.,4.8,0.,4.8
1979-07-30 18:31:53.320 ,6,0,2.,4.8,0.,4.8,0.,4.8,0.,4.8
1979-07-30 18:31:58.120 ,5,0,0.,4.8,0.,4.8,0.,4.8,0.,4.8
1979-07-30 18:32:02.920 ,5,0,1.,4.8,0.,4.8,0.,4.8,0.,4.8
1979-07-30 18:32:07.720 ,5,0,1.,4.8,0.,4.8,1.,4.8,0.,4.8
1979-07-30 18:32:12.520 ,5,0,1.,4.8,0.,4.8,0.,4.8,0.,4.8
1979-07-30 18:32:17.320 ,5,0,3.,4.8,0.,4.8,0.,4.8,0.,4.8
1979-07-30 18:32:22.120 ,5,0,0.,4.8,0.,4.8,0.,4.8,0.,4.8
1979-07-30 18:32:26.920 ,5,0,3.,4.8,0.,4.8,0.,4.8,0.,4.8
1979-07-30 18:32:31.720 ,5,0,2.,4.8,0.,4.8,0.,4.8,0.,4.8
1979-07-30 18:32:36.520 ,5,0,3.,4.8,0.,4.8,0.,4.8,0.,4.8
1979-07-30 18:32:41.320 ,5,0,2.,4.8,0.,4.8,0.,4.8,0.,4.8
1979-07-30 18:32:46.120 ,4,0,2.,4.8,0.,4.8,0.,4.8,0.,4.8
1979-07-30 18:32:50.920 ,4,0,2.,4.8,0.,4.8,0.,4.8,0.,4.8
1979-07-30 18:32:55.720 ,4,0,1.,4.8,0.,4.8,0.,4.8,0.,4.8
1979-07-30 18:33:00.520 ,4,0,1.,4.8,0.,4.8,0.,4.8,0.,4.8
1979-07-30 18:33:05.320 ,4,0,0.,4.8,0.,4.8,0.,4.8,0.,4.8
1979-07-30 18:33:10.120 ,4,0,1.,4.8,0.,4.8,0.,4.8,0.,4.8
1979-07-30 18:33:14.920 ,4,0,4.,4.8,0.,4.8,0.,4.8,0.,4.8